weather.gov     
National Weather Service

Regional Weather Roundup
NWS Homepage
This page is being discontinued on March 12, 2014.
The same data is available at this site. Please update your bookmarks.
Thank you, and we apologize for the inconvenience.
Please send an email to SR-SRH.Webmaster@noaa.gov with any concerns.


Current Version
Previous Version:    01  02  03  04  05  06  07  08  09  10  11  12  13  14  15  16  17  18  19  20  21  22  23  24  25  26  27  
[Printable]
568
ASUS46 KSEW 240410
RWRWA

WASHINGTON REGIONAL WEATHER ROUNDUP
NATIONAL WEATHER SERVICE SEATTLE WA
800 PM PST SUN NOV 23 2014

NOTE:"FAIR" INDICATES FEW OR NO CLOUDS BELOW 12,000 FEET WITH NO
SIGNIFICANT WEATHER AND/OR OBSTRUCTIONS TO VISIBILITY.

WAZ505-507>509-240500-
SEATTLE, TACOMA, EVERETT, AND VICINITY

CITY           SKY/WX    TMP DP  RH WIND       PRES   REMARKS
EVERETT        PTCLDY    42  37  82 S6        30.27R
BOEING FIELD   PTCLDY    45  39  79 SE6       30.29R
RENTON         PTCLDY    44  43  96 SE6       30.29R
SEATAC AIRPORT PTCLDY    45  39  79 SE6       30.29R
JBLM-MCCHORD   MOCLDY    43  43  99 S7        30.29R
PUYALLUP       NOT AVBL
JBLM-FT LEWIS  MOCLDY    43  43  99 SE9       30.29R
TACOMA NARROWS MOCLDY    46  40  79 S6        30.29R
$$

WAZ001-503-506-510-514-515-240500-
NORTH INTERIOR

CITY           SKY/WX    TMP DP  RH WIND       PRES   REMARKS
BELLINGHAM     CLEAR     42  38  85 S5        30.25R
FRIDAY HARBOR  PTCLDY    44  39  82 SW5       30.25S
EASTSOUND      PTCLDY    43  39  87 CALM      30.23R
PORT ANGELES   MOCLDY    45  37  73 W16       30.25S
NAS WHIDBEY    PTCLDY    51  43  74 W12       30.26R
BURLINGTON     CLEAR     43  39  87 CALM      30.27R
$$

WAZ020-022-039-040-504-511-512-240500-
SOUTHWEST INTERIOR

CITY           SKY/WX    TMP DP  RH WIND       PRES   REMARKS
SHELTON        MOCLDY    45  41  86 SW13      30.25R
OLYMPIA        MOCLDY    44  41  89 S3        30.30R
CHEHALIS         N/A     41  41 100 SW5       30.32R
KELSO          MOCLDY    46  43  87 CALM      30.37R
VANCOUVER      CLOUDY    49  47  93 CALM      30.33R
SCAPPOOSE, OR  CLOUDY    47  46  97 CALM      30.33R FOG
PORTLAND, OR   MOCLDY    48  48 100 E5        30.34R
$$

WAZ021-516-517-240500-
WASHINGTON COAST

CITY           SKY/WX    TMP DP  RH WIND       PRES   REMARKS
FORKS          CLOUDY    43  43 100 E3        30.27S
HOQUIAM        MOCLDY    43  42  97 E3        30.30R FOG
ASTORIA, OR    FOG       39  38  96 SE6       30.31R VSB 3/4
$$

WAZ019-023-024-040-518-519-240500-
CASCADE MOUNTAINS AND COLUMBIA GORGE

CITY           SKY/WX    TMP DP  RH WIND       PRES   REMARKS
STAMPEDE PASS  NOT AVBL
TROUTDALE, OR  MOCLDY    48  46  93 CALM      30.33R FOG
THE DALLES, OR PTCLDY    50  42  74 NW13G21   30.26R
$$

WAZ026-027-041>044-520-521-240500-
EAST SLOPES

CITY           SKY/WX    TMP DP  RH WIND       PRES   REMARKS
OMAK           CLEAR     31  27  85 W6        30.11R
WENATCHEE      CLEAR     41  30  65 NW16      30.15R
ELLENSBURG     LGT RAIN  39  33  79 NW16      30.22R
YAKIMA         CLEAR     41  29  62 SE3       30.20R
$$

WAZ028-034-035-240500-
COLUMBIA BASIN

CITY           SKY/WX    TMP DP  RH WIND       PRES   REMARKS
EPHRATA        CLEAR     40  29  64 S5        30.14R
MOSES LAKE     CLEAR     42  30  62 W3        30.16R
PASCO          PTCLDY    45  36  70 W13       30.22R
HERMISTON, OR  PTCLDY    46  38  73 SW13G22   30.22R
$$

WAZ036>038-240500-
NORTHEAST WASHINGTON

CITY           SKY/WX    TMP DP  RH WIND       PRES   REMARKS
SPOKANE GEIGER PTCLDY    35  29  78 W13       30.06R WCI  26
SPOKANE FELTS  CLEAR     37  30  75 CALM      30.09R
FAIRCHILD AFB  CLEAR     33  29  85 SW14      30.06R WCI  23
COEURDALENE,ID MOCLDY    36  28  75 SE7       30.06R
DEER PARK      CLEAR     32  30  92 S6        30.05R
$$

WAZ029>033-240500-
SOUTHEAST WASHINGTON

CITY           SKY/WX    TMP DP  RH WIND       PRES   REMARKS
PULLMAN        PTCLDY    38  33  82 W15       30.12R
LEWISTON, ID   LGT RAIN  44  33  65 SW6       30.14R
WALLA WALLA    PTCLDY    43  37  79 S10       30.22R
PENDLETON, OR  PTCLDY    44  37  76 W15       30.21R
$$




U.S. Dept. of Commerce
NOAA National Weather Service
1325 East West Highway
Silver Spring, MD 20910
E-mail: w-nws.webmaster@noaa.gov
Page last modified: May 16, 2007
NATIONAL WEATHER SERVICE: for Safety, for Work, for Fun - FOR LIFE